Weather reports worldwide

Advertisment
Glasgow/Bishopton, United Kingdom (3134): temperature & dewpoint: 31.05.2020 18:00:00 - 06.06.2020 18:00:00 (BST)Glasgow/Bishopton, United Kingdom (3134): temperature -20cm & temperature -100cm: 31.05.2020 18:00:00 - 06.06.2020 18:00:00 (BST)Glasgow/Bishopton, United Kingdom (3134): wind speed & gusts: 31.05.2020 18:00:00 - 06.06.2020 18:00:00 (BST)Glasgow/Bishopton, United Kingdom (3134): wind direction: 31.05.2020 18:00:00 - 06.06.2020 18:00:00 (BST)Glasgow/Bishopton, United Kingdom (3134): reduced air pressure: 31.05.2020 18:00:00 - 06.06.2020 18:00:00 (BST)Glasgow/Bishopton, United Kingdom (3134): visibility: 31.05.2020 18:00:00 - 06.06.2020 18:00:00 (BST)Glasgow/Bishopton, United Kingdom (3134): sunshine duration: 31.05.2020 18:00:00 - 06.06.2020 18:00:00 (BST)Glasgow/Bishopton, United Kingdom (3134): precipitation: 31.05.2020 18:00:00 - 06.06.2020 18:00:00 (BST)
Date & Time tt [°C] td [°C] tt -20cm [°C] tt -100cm [°C] ff [km/h] ff [kn] fx [km/h] fx [kn] dd ppp [hPa] vv [km] sd [min] rr [mm]
06.06.2020 18:00:00 15,9 8,0 - - 15 8 - - N 999,3 80 0 -
06.06.2020 17:00:00 16,0 7,5 - - 21 11 - - NW 998,6 75 18 0,0
06.06.2020 16:00:00 16,6 8,8 - - 16 9 - - NW 998,4 75 24 0,0
06.06.2020 15:00:00 17,1 7,3 - - 18 10 - - NNW 997,9 75 54 0,0
06.06.2020 14:00:00 17,3 7,5 - - 18 10 - - N 997,6 75 42 0,0
06.06.2020 13:00:00 16,0 6,4 - - 18 10 - - N 997,1 75 12 0,0
06.06.2020 12:00:00 14,8 7,7 - - 22 12 - - NNW 996,5 75 6 0,0
06.06.2020 11:00:00 14,5 7,5 - - 24 13 - - NNW 995,7 75 6 0,0
06.06.2020 10:00:00 14,1 8,1 14,2 12,7 16 9 - - N 995,2 75 6 0,0
06.06.2020 09:00:00 12,6 8,2 - - 13 7 - - NW 994,6 75 0 0,0
06.06.2020 08:00:00 12,2 8,2 - - 13 7 - - NW 993,7 75 24 0,0
06.06.2020 07:00:00 10,4 7,7 - - 18 10 - - NNW 992,8 75 0 0,0
06.06.2020 06:00:00 11,1 7,1 - - 15 8 - - NNW 992,2 75 0 0,0
06.06.2020 05:00:00 10,7 7,5 - - 18 10 - - NNW 991,5 75 0 0,0
06.06.2020 04:00:00 10,6 8,1 - - 18 10 - - NW 990,9 50 0 0,0
06.06.2020 03:00:00 9,9 7,3 - - 15 8 - - NW 990,6 75 0 0,0
06.06.2020 02:00:00 9,7 7,1 - - 26 14 48 26 NW 990,6 75 0 0,0
06.06.2020 01:00:00 9,1 6,0 - - 22 12 - - WNW 990,5 75 - 0,0
06.06.2020 00:00:00 8,7 5,0 - - 31 17 57 31 WNW 991,1 75 0 0,0
05.06.2020 23:00:00 8,5 4,7 - - 34 18 57 31 NW 991,4 75 0 0,0
05.06.2020 22:00:00 8,5 4,5 - - 35 19 57 31 NW 991,7 75 0 0,0
05.06.2020 21:00:00 8,5 3,9 - - 31 17 54 29 NW 992,1 75 0 0,0
05.06.2020 20:00:00 8,6 3,6 - - 37 20 63 34 NW 992,5 50 0 0,0
05.06.2020 19:00:00 9,4 3,2 - - 46 25 67 36 NW 992,8 55 12 0,0
05.06.2020 18:00:00 10,3 3,7 - - 41 22 61 33 NW 993,4 75 18 0,0
05.06.2020 17:00:00 11,0 4,3 - - 37 20 65 35 NW 993,9 75 48 0,0
05.06.2020 16:00:00 12,5 4,9 - - 35 19 59 32 NW 993,9 70 60 0,0
05.06.2020 15:00:00 11,4 3,5 - - 39 21 57 31 NW 994,3 75 60 0,0
05.06.2020 14:00:00 12,1 3,5 - - 35 19 54 29 NW 994,6 75 60 0,0
05.06.2020 13:00:00 12,8 4,2 - - 31 17 55 30 NW 995,0 75 60 0,0
05.06.2020 12:00:00 11,4 4,2 - - 31 17 50 27 NW 995,3 75 60 0,0
05.06.2020 11:00:00 11,0 3,8 - - 29 16 - - NW 995,8 75 54 0,0
05.06.2020 10:00:00 10,5 4,9 14,4 12,7 28 15 - - NW 996,3 75 48 0,0
05.06.2020 09:00:00 9,0 3,4 - - 18 10 - - NW 996,7 75 0 0,0
05.06.2020 08:00:00 7,9 4,3 - - 26 14 - - NW 996,8 75 6 0,0
05.06.2020 07:00:00 7,1 4,1 - - 16 9 - - NW 997,2 75 0 0,0
05.06.2020 06:00:00 6,4 4,4 - - 11 6 - - N 997,4 75 0 0,0
05.06.2020 05:00:00 6,4 4,3 - - 13 7 - - NNW 997,5 75 0 0,0
05.06.2020 04:00:00 6,3 5,6 - - 8 4 - - NNW 997,6 75 0 0,0
05.06.2020 03:00:00 6,5 5,5 - - 9 5 - - NNW 998,1 75 0 1,6
05.06.2020 02:00:00 7,5 6,8 - - 8 4 - - NW 998,6 24 0 0,0
05.06.2020 01:00:00 7,0 5,8 - - 8 4 - - WNW 999,0 70 - 0,0
05.06.2020 00:00:00 7,8 6,6 - - 4 2 - - W 999,5 65 0 0,0
04.06.2020 23:00:00 8,0 6,2 - - 5 3 - - E 999,8 75 0 0,0
04.06.2020 22:00:00 8,5 6,5 - - 11 6 - - E 999,9 75 0 0,0
04.06.2020 21:00:00 8,9 7,0 - - 16 9 - - E 999,6 75 0 0,6
04.06.2020 20:00:00 10,7 7,2 - - 11 6 - - N 999,0 20 0 0,2
04.06.2020 19:00:00 11,8 7,0 - - 15 8 - - NE 998,7 7 0 0,0
04.06.2020 18:00:00 13,9 5,5 - - 22 12 - - NW 998,6 75 42 0,0
04.06.2020 17:00:00 15,3 6,3 - - 28 15 - - NW 998,8 75 60 0,2
04.06.2020 16:00:00 15,1 8,4 - - 28 15 - - NW 999,2 75 24 0,0
04.06.2020 15:00:00 15,3 9,1 - - 21 11 - - WNW 999,9 75 54 0,0
04.06.2020 14:00:00 15,0 10,5 - - 21 11 - - NW 1000,7 35 42 0,0
04.06.2020 13:00:00 14,7 10,1 - - 13 7 - - WNW 1001,3 75 6 0,0
04.06.2020 12:00:00 13,8 8,4 - - 16 9 - - NW 1002,1 70 18 0,0
04.06.2020 11:00:00 13,2 9,5 - - 13 7 - - NW 1002,9 75 0 0,0
04.06.2020 10:00:00 11,5 8,3 14,4 12,5 9 5 - - W 1003,6 75 0 0,0
04.06.2020 09:00:00 10,6 6,2 - - 11 6 - - W 1004,6 75 0 0,0
04.06.2020 08:00:00 10,0 5,8 - - 8 4 - - WNW 1005,1 75 0 0,0
04.06.2020 07:00:00 9,1 4,9 - - 11 6 - - NW 1006,1 75 0 0,0
04.06.2020 06:00:00 8,9 3,6 - - 13 7 - - NW 1006,9 75 0 0,0
04.06.2020 05:00:00 8,8 4,3 - - 15 8 - - NW 1007,5 75 0 0,0
04.06.2020 04:00:00 8,7 4,5 - - 21 11 - - NW 1007,8 75 0 0,0
04.06.2020 03:00:00 9,2 4,6 - - 18 10 - - NW 1009,0 75 0 0,0
04.06.2020 02:00:00 10,2 5,2 - - 5 3 - - NNE 1010,1 75 0 0,0
04.06.2020 01:00:00 10,2 5,6 - - 9 5 - - NW 1011,0 75 - 0,0
04.06.2020 00:00:00 10,0 5,9 - - 8 4 - - NNW 1011,6 75 0 0,0
03.06.2020 23:00:00 10,4 4,4 - - 9 5 - - NW 1012,3 70 0 0,0
03.06.2020 22:00:00 12,1 2,9 - - 4 2 - - N 1012,6 75 0 0,0
03.06.2020 21:00:00 12,9 3,7 - - 5 3 - - NE 1012,9 75 0 0,0
03.06.2020 20:00:00 13,8 1,8 - - 11 6 - - NE 1012,9 75 30 0,0
03.06.2020 19:00:00 15,1 3,1 - - 11 6 - - NNE 1013,3 75 24 0,0
03.06.2020 18:00:00 15,0 4,2 - - 11 6 - - N 1013,8 75 30 0,0
03.06.2020 17:00:00 15,8 2,6 - - 13 7 - - N 1014,2 75 42 0,0
03.06.2020 16:00:00 16,5 4,9 - - 15 8 - - N 1014,6 75 42 0,0
03.06.2020 15:00:00 14,6 4,3 - - 15 8 - - NNE 1015,1 75 30 0,0
03.06.2020 14:00:00 13,3 4,4 - - 11 6 - - NNE 1015,8 75 6 0,0
03.06.2020 13:00:00 13,6 2,8 - - 9 5 - - NE 1016,0 75 36 0,0
03.06.2020 12:00:00 13,9 - - - - - - - - 1016,4 75 30 0,0
03.06.2020 11:00:00 - - - - - - - - - - 75 6 0,0
03.06.2020 10:00:00 11,0 5,6 14,7 12,4 15 8 - - NNE 1017,2 75 6 0,0
03.06.2020 09:00:00 10,7 5,2 - - 9 5 - - NNE 1017,1 75 30 0,0
03.06.2020 08:00:00 10,9 5,8 - - 9 5 - - NE 1017,3 75 60 0,0
03.06.2020 07:00:00 9,8 7,1 - - 8 4 - - NNW 1017,3 75 54 0,0
03.06.2020 06:00:00 8,8 6,7 - - 9 5 - - NNE 1017,1 75 0 0,2
03.06.2020 05:00:00 8,8 6,9 - - 13 7 - - NE 1016,9 14 0 0,4
03.06.2020 04:00:00 9,0 7,2 - - 9 5 - - NE 1016,9 25 0 0,6
03.06.2020 03:00:00 9,3 8,0 - - 8 4 - - E 1016,8 11 0 0,8
03.06.2020 02:00:00 10,5 9,7 - - 9 5 - - E 1016,7 14 0 1,0
03.06.2020 01:00:00 11,1 10,5 - - 21 11 - - E 1016,2 2,3 - 1,8
03.06.2020 00:00:00 11,9 11,2 - - 15 8 - - E 1016,2 5 0 0,0
02.06.2020 23:00:00 12,4 11,8 - - 8 4 - - SE 1016,1 4,5 0 0,8
02.06.2020 22:00:00 12,4 11,4 - - 11 6 - - WNW 1016,6 5 0 3,2
02.06.2020 21:00:00 13,6 11,5 - - 16 9 - - NNW 1016,8 4,9 0 0,8
02.06.2020 20:00:00 16,3 10,8 - - 11 6 - - NW 1016,3 45 0 0,0
02.06.2020 19:00:00 17,0 10,4 - - 15 8 - - NW 1016,4 50 0 0,0
02.06.2020 18:00:00 18,1 9,5 - - 16 9 - - N 1016,6 55 0 0,0
02.06.2020 17:00:00 20,0 12,0 - - 15 8 - - WNW 1017,2 50 0 0,0
02.06.2020 16:00:00 20,4 12,2 - - 15 8 - - W 1017,9 60 0 0,0
02.06.2020 15:00:00 21,2 12,4 - - 15 8 - - WNW 1018,4 55 0 0,0
02.06.2020 14:00:00 22,2 12,1 - - 11 6 - - NW 1018,7 55 6 0,0
02.06.2020 13:00:00 22,3 12,6 - - 5 3 - - N 1019,3 50 48 0,0
02.06.2020 12:00:00 21,0 12,5 - - 9 5 - - N 1020,0 60 60 0,0
02.06.2020 11:00:00 19,3 12,3 - - 5 3 - - SW 1020,9 65 0 0,0
02.06.2020 10:00:00 17,0 10,8 - - 2 1 - - SE 1021,4 60 0 -
02.06.2020 09:00:00 16,2 10,8 - - 4 2 - - SE 1021,7 60 36 -
02.06.2020 08:00:00 14,5 9,9 - - 4 2 - - SE 1022,1 40 48 0,0
02.06.2020 07:00:00 11,7 10,2 - - 2 1 - - NNE 1022,5 45 12 0,0
02.06.2020 06:00:00 9,9 8,5 - - 2 1 - - N 1022,9 45 0 0,0
02.06.2020 05:00:00 10,3 8,5 - - 2 1 - - SW 1023,1 40 0 0,0
02.06.2020 04:00:00 10,8 8,9 - - 4 2 - - WNW 1023,3 40 0 0,0
02.06.2020 03:00:00 10,3 8,2 - - 4 2 - - N 1023,8 45 0 0,0
02.06.2020 02:00:00 11,2 8,4 - - 4 2 - - ESE 1023,9 60 0 0,0
02.06.2020 01:00:00 12,8 10,0 - - 8 4 - - N 1024,2 55 - 0,0
02.06.2020 00:00:00 13,7 9,1 - - 2 1 - - ENE 1024,3 60 0 0,0
01.06.2020 23:00:00 15,9 8,4 - - 4 2 - - SE 1024,4 70 0 0,0
01.06.2020 22:00:00 17,0 7,5 - - 4 2 - - E 1024,4 70 0 0,0
01.06.2020 21:00:00 19,4 8,2 - - 5 3 - - NNE 1024,1 70 54 0,0
01.06.2020 20:00:00 21,9 8,8 - - 8 4 - - WNW 1024,1 65 60 0,0
01.06.2020 19:00:00 22,8 8,9 - - 15 8 - - NW 1024,3 65 60 0,0
01.06.2020 18:00:00 22,7 10,5 - - 15 8 - - NW 1024,4 60 42 0,0
01.06.2020 17:00:00 23,3 11,9 - - 11 6 - - NW 1024,6 75 48 0,0
01.06.2020 16:00:00 23,5 9,0 - - 4 2 - - SW 1025,0 75 36 0,0
01.06.2020 15:00:00 23,6 10,0 - - 5 3 - - W 1025,4 70 42 0,0
01.06.2020 14:00:00 23,3 9,5 - - 5 3 - - N 1025,9 65 60 0,0
01.06.2020 13:00:00 22,5 10,1 - - 5 3 - - NNW 1026,1 75 60 0,0
01.06.2020 12:00:00 21,2 8,6 - - 5 3 - - NNW 1026,6 65 60 0,0
01.06.2020 11:00:00 19,2 11,6 - - 8 4 - - NNW 1027,0 50 60 0,0
01.06.2020 10:00:00 17,0 10,1 14,4 12,0 4 2 - - NE 1027,1 55 60 0,0
01.06.2020 09:00:00 15,1 9,8 - - 4 2 - - SSE 1027,3 50 60 0,0
01.06.2020 08:00:00 13,8 9,7 - - 2 1 - - NNE 1027,5 55 60 0,0
01.06.2020 07:00:00 11,3 9,5 - - 5 3 - - NW 1027,7 45 54 0,0
01.06.2020 06:00:00 9,1 8,0 - - 4 2 - - NNW 1027,6 45 0 0,0
01.06.2020 05:00:00 8,0 6,4 - - 9 5 - - NW 1027,0 35 0 0,0
01.06.2020 04:00:00 8,1 6,0 - - 8 4 - - NW 1026,9 35 0 0,0
01.06.2020 03:00:00 9,7 7,4 - - 9 5 - - WNW 1026,8 30 0 0,0
01.06.2020 02:00:00 10,2 7,7 - - 9 5 - - WNW 1026,6 55 0 0,0
01.06.2020 01:00:00 10,4 7,5 - - 5 3 - - W 1026,6 55 - 0,0
01.06.2020 00:00:00 11,7 7,5 - - 4 2 - - WSW 1026,3 50 0 0,0
31.05.2020 23:00:00 13,2 7,7 - - 2 1 - - W 1026,0 35 0 0,0
31.05.2020 22:00:00 15,2 7,9 - - 5 3 - - SSE 1025,6 70 6 0,0
31.05.2020 21:00:00 17,0 7,7 - - 16 9 - - ESE 1025,0 75 60 0,0
31.05.2020 20:00:00 18,5 6,9 - - 22 12 - - E 1024,7 75 60 0,0
31.05.2020 19:00:00 19,9 7,0 - - 22 12 - - E 1024,3 75 60 0,0
31.05.2020 18:00:00 21,0 8,9 - - 21 11 - - E 1024,1 55 60 0,0

tt = temperature
td = dewpoint
tt -20cm = temperature -20cm
tt -100cm = temperature -100cm
ff = wind speed
fx = gusts
dd = wind direction
ppp = reduced air pressure
vv = visibility
sd = sunshine duration
rr = precipitation

Next stations